STARLINK-35657, 66399

Orbit data source: Space-Track

STARLINK-35657, 66399 is a payload satellite owned by SpaceX/Seattle (US) in LEO that was launched on Sat, 08 Nov 2025 UTC via an FALCON 9 launch vehicle from the Air Force Eastern Test Range (AFETR). Payload-class satellites include a variety of spacecraft equipped with specific instruments for various scientific and technological missions. These include communications satellites like Starlink; space stations such as the ISS; scientific satellites like the Hubble; Earth observation satellites from companies like Planet Labs, Umbra, and HawkEye 360; GPS; miniature CubeSats for education and research; and military/defense satellites.

Loading next visibility...
Identifier
66399, 2025-257V
Orbit
LEO
Country
Flag of USUS
Related business
Manufacturer
SpaceX/Seattle
Mission
Operational Commercial Communications
Bus & Motor
STARLINK V2MO, Unknown motor
Mass
575 kg wet, ~530 kg dry
Launch date (UTC)
2025-11-08 (7 months ago)
Launch vehicle
FALCON 9
Launch site
Air Force Eastern Test Range (AFETR)
Object type
Payload
Rocket body
Debris
Shape & HBR
Box + 2 Pan, 17.7 m
Radar Cross Section
36.964 m², Large (>1 m²)

Expand to show TLE details & history
Last TLE update: 21 hours ago

TLE from 21 hours ago
0 STARLINK-35657
1 66399U 25257V   26170.97645852  .00018161  00000-0  54679-3 0  9997
2 66399  53.1591 100.5228 0001196  93.2219 266.8921 15.34431665 35404
Epoch: 2026-06-19T23:26Z
TLE epoch observation values (Epoch: 2026-06-19T23:26:06.016Z)
Latitude
0.00004°
Longitude
-159.19994°
Altitude
463.555 km
Speed
7.636 km/s
True Right ascension
06h 42m 05s
True Declination
0° 00' 00"
Sunlit
Object was in daylight at epoch
Visualization orbit readout
Latitude
Unknown
Longitude
Unknown
Altitude
Unknown
Speed
Unknown
Apparent Right ascension
Unknown
Apparent Declination
Unknown
Sunlit
N/A
Visualization observer readout
Local Sidereal Time
07:18:20
Azimuth
Unknown
Elevation
Unknown
Doppler factor
Unknown
Orbital elements
Apogee altitude
463.684 km
Perigee altitude
462.048 km
Semi-major axis
6,841.003 km
Eccentricity
0.00012
Inclination
53.1591°
RAAN
100.5228°
Arg. of periapsis
93.2219°
True anomaly
266.87842°
Mean anomaly
266.8921°
Eccentric anomaly
266.88526°
Mean motion
3.83587 °/min
Orbital period
93.85 mins
BSTAR
0.00054679
Loading maneuver chart data...
Computing Atmospheric mass density...
Loading historical data...
Loading historical data...
Loading historical data...
Loading historical data...
Loading historical data...
Loading historical data...
Loading historical data...

Documentation

Showing up to 5 results
|